NOAA 16 DEB

Satellite information

Favourite Embed

Satellite Type and Status

DEBRISIN ORBIT

Key statistics

Satellite NOAA 16 DEB at a glance.

Uptime

9115

Days in orbit

Revolutions

≈ 14.2

Per day

Orbit

SSO

Sun Synchronous Orbit

Inclination

98.7

Latest

Satellite identification and parameters

Extended collection of information and parameters for NOAA 16 DEB.

Object identification

Identified? True

Debris? True

Object name: NOAA 16 DEB

International designator: 2000-055EN

Object number (NORAD): 41233

Object ID (CCSDS): 41233

Country: UNITED STATES OF AMERICA (US)

Current information (Y/N): Y

RCS size: SMALL

Orbital parameters

Period: 101.468 minutes

Inclination: 98.7082 deg

SMA: 7206.326 km

Apoapsis: 855.931 km

Periapsis: 800.451 km

RAAN: 282.8854 deg

Eccentricy: 0.00384941

Argument of periapsis: 248.1213 deg

Mean anomaly: 111.5868 deg

Mean motion: 14.19161792 rev/day

Mean motion (dot): 0.00004781 rev/day2

B* drag term: 0.0022867089 1/REarth

Two-line elements (TLE)

Creation date: Sept. 4, 2025, 4:29 a.m.

Reference frame: TEME

Reference center: EARTH

Epoch: Sept. 2, 2025, 1:25 a.m. UTC

TLE line 0: 0 NOAA 16 DEB

TLE line 1: 1 41233U 00055EN 25245.05966356 .00004781 00000-0 22867-2 0 9998

TLE line 2: 2 41233 98.7082 282.8854 0038494 248.1213 111.5868 14.19161792500258

Live tracking on map

Real-time ground track for satellite NOAA 16 DEB.

In-orbit conjunctions

A list of the most updated potential collisions computed for object NOAA 16 DEB.

Target Orbit TCA Probability of collision Miss distance Type
CZ-6A DEB SSO 2024-11-11 00:34:50 0.0002629512 256.0 (m) DEBRIS
QUAKESAT SSO 2024-10-20 12:10:28 0.0001472201 641.0 (m) PAYLOAD

Associated space launch

The NOAA K, L and M POES satellites begin the fifth generation of improved environmental monitoring in support of NOAA missions. The instrument payload has significant improvements and additions/deletions. The instrument changes have effected the spacecraft subsystems and data formats.

NOAA 16 DEB was lifted into orbit during the mission ‘Titan II SLV | NOAA 16’, on board a Titan II SLV space rocket.

The launch took place on Sept. 21, 2000, 10:22 a.m. from Space Launch Complex 4W.

For more information about the launch, click the button.

Launch to space Titan II SLV | NOAA 16
Titan II SLV | NOAA 16

Agency: N/A

Status: Launch Successful

Launch date: Sept. 21, 2000, 10:22 a.m. UTC

Rocket: Titan II SLV

Launch pad: Space Launch Complex 4W

Location: Vandenberg SFB, CA, USA

...

Latest news about this satellite

There are no fresh news available about this satellite. Check back as we update our databases every day.


Newsletter sign-up

Weekly statistics, charts and insights to help you stay on top of the space industry.